Satellite: RS-38
Catalog number: 35869
Epoch time: 10259.86039289
Element set: 674
Inclination: 098.7477 deg
RA of node: 312.9981 deg
Eccentricity: 0.0005454
Arg of perigee: 096.1064 deg
Mean anomaly: 264.0718 deg
Mean motion: 14.21988616 rev/day
Decay rate: 1.77e-06 rev/day^2
Epoch rev: 5175
Checksum: 357
/EX
More information about the Keps
mailing list